Content
SEND FEEDBACK

Daily
Averages
Monthly
Summary
United States of America

ASATDAS, GUAM


Home > North America > United States > Guam
Elevation: 612 feet     Latitude: 13 35N     Longitude: 144 56E

WEATHER
 
SELECT A DAY
Number of Records: 208,807;   Date Range: 1/1/95 - 7/7/14
 
SHARE

PRINT THIS DATA

[ ← Previous Day ]
WEATHER ALMANAC - FEBRUARY 12, 2013
[ Next Day → ]
[ °C ]   °F
Weather ElementAverageHighLow
Temperature77.4 °F81 °F (1:54 pm)75 °F (6:54 am)
Dewpoint74 °F75.9 °F (9:54 am)70 °F (8:54 pm)
Humidity89.5 %100 % (7:15 am)79 % (1:54 pm)
Barometer29.90 in29.95 in (8:54 am)29.85 in (3:54 pm)
Wind Speed15.7 mph21.9 mph (9:54 pm)
Wind Gust31.1 mph (6:54 am)
Weather ElementAverage
Visibility9.2 mi
Wind DirectionENE (75.9 °)

Weather ElementTotal
Precipitation0.13 in
Cooling Degree Days13 (Base 65)
Growing Degree Days28 (Base 50)
Averaged from 34 records on February 12, 2013
WEATHER CONDITIONS BREAKOUT
WIND DIRECTION BREAKOUT
WEATHER BY HOUR - FEBRUARY 12, 2013
[ °C ]   °F
Local TimeTemperatureDewpointHumidityBarometerVisibilityWind DirectionWind SpeedGust SpeedPrecipitationEventsConditions
1:54 AM75.9 °F73.9 °F94 %29.91 in9.0 miENE (60°)11.5 mph0.00 inRainLight Rain
2:54 AM75.9 °F73.0 °F91 %29.90 in10.0 miENE (60°)11.5 mph0.00 inMostly Cloudy
3:54 AM75.9 °F73.9 °F94 %29.89 in10.0 miNE (50°)11.5 mphScattered Clouds
4:54 AM75.9 °F73.9 °F94 %29.89 in10.0 miNE (50°)13.8 mphScattered Clouds
5:54 AM75.9 °F73.9 °F94 %29.89 in10.0 miNE (50°)13.8 mph20.7 mph0.01 inMostly Cloudy
6:14 AM75.2 °F73.4 °F94 %29.92 in10.0 miNE (40°)13.8 mphMostly Cloudy
6:54 AM75.0 °F73.9 °F96 %29.91 in5.0 miNE (40°)19.6 mph31.1 mph0.00 inRainLight Rain
7:15 AM75.2 °F75.2 °F100 %29.93 in10.0 miNE (50°)17.3 mph24.2 mph0.00 inMostly Cloudy
7:39 AM75.2 °F73.4 °F94 %29.94 in10.0 miENE (70°)15.0 mph0.00 inMostly Cloudy
7:54 AM75.9 °F75.0 °F97 %29.93 in10.0 miEast (80°)12.7 mph0.00 inScattered Clouds
8:54 AM75.0 °F73.0 °F94 %29.95 in8.0 miEast (80°)12.7 mph24.2 mph0.00 inRainLight Rain
9:54 AM79.0 °F75.9 °F90 %29.95 in10.0 miEast (80°)16.1 mph21.9 mphMostly Cloudy
10:54 AM80.1 °F75.0 °F85 %29.94 in9.0 miEast (90°)18.4 mph27.6 mphMostly Cloudy
11:54 AM79.0 °F73.9 °F84 %29.93 in7.0 miEast (100°)19.6 mph27.6 mph0.00 inRainLight Rain
12:01 PM75.2 °F75.2 °F100 %29.94 in3.0 miEast (100°)16.1 mph27.6 mph0.01 inRainRain
12:41 PM78.8 °F75.2 °F89 %29.92 in10.0 miEast (90°)15.0 mph24.2 mph0.01 inMostly Cloudy
12:54 PM79.0 °F75.9 °F90 %29.90 in10.0 miEast (90°)18.4 mph24.2 mph0.01 inMostly Cloudy
1:12 PM80.6 °F75.2 °F84 %29.91 in10.0 miEast (90°)13.8 mph26.5 mphScattered Clouds
1:54 PM81.0 °F73.9 °F79 %29.88 in10.0 miEast (90°)19.6 mph25.3 mphScattered Clouds
2:45 PM80.6 °F73.4 °F79 %29.88 in10.0 miEast (90°)17.3 mph24.2 mphMostly Cloudy
2:54 PM81.0 °F73.9 °F79 %29.86 in10.0 miEast (90°)19.6 mph25.3 mphMostly Cloudy
3:54 PM79.0 °F75.9 °F90 %29.85 in10.0 miEast (90°)12.7 mph25.3 mphScattered Clouds
4:11 PM77.0 °F75.2 °F94 %29.87 in4.0 miEast (80°)13.8 mph23.0 mph0.03 inRainLight Rain
4:43 PM78.8 °F75.2 °F89 %29.87 in9.0 miEast (80°)12.7 mph0.03 inRainLight Rain
4:54 PM78.1 °F75.9 °F93 %29.85 in10.0 miEast (80°)17.3 mph25.3 mph0.03 inScattered Clouds
5:54 PM77.0 °F73.9 °F90 %29.86 in10.0 miENE (70°)13.8 mph24.2 mph0.00 inMostly Cloudy
6:54 PM77.0 °F73.9 °F90 %29.88 in10.0 miEast (80°)16.1 mph24.2 mphScattered Clouds
7:14 PM78.8 °F75.2 °F89 %29.90 in10.0 miENE (70°)13.8 mphMostly Cloudy
7:42 PM77.0 °F73.4 °F89 %29.92 in10.0 miEast (80°)17.3 mph25.3 mphScattered Clouds
7:54 PM77.0 °F73.0 °F88 %29.90 in10.0 miEast (80°)17.3 mph27.6 mphScattered Clouds
8:54 PM77.0 °F70.0 °F79 %29.92 in10.0 miEast (90°)19.6 mph29.9 mphPartly Cloudy
9:54 PM77.0 °F72.0 °F84 %29.92 in10.0 miEast (80°)21.9 mph27.6 mphScattered Clouds
10:54 PM77.0 °F72.0 °F84 %29.92 in10.0 miEast (80°)13.8 mph27.6 mphScattered Clouds
11:54 PM77.0 °F72.0 °F84 %29.91 in10.0 miEast (80°)15.0 mph25.3 mphPartly Cloudy
Hourly data recorded from PGUM, located miles away from Asatdas, Guam







STORIES FROM OUR PARTNERS